Погода в Санта-Тереза-Галлура

Италия     41°14′25″N   9°11′18″E
темп.,
°C
ветер,
м/с
пор.,
м/с
влажн.,
%
обл.,
%
осадки,
мм/ч
давл.,
гПа
погр.,
м
19 апреля, пн
пн1923:00+11зсз457161 0.0 1016430
02:00+11зсз567527 0.1 1016324
05:00+10з477610 0.3 1015405
08:00+11зюз68748 0.5 1016802
11:00+13з89679 0.1 10161144
14:00+13з88708 0.2 10161021
17:00+13з77716 0.4 1015944
20:00+13зсз45712 0.8 1016678
20 апреля, вт
вт2023:00+12з78740 0.0 1017808
02:00+11зюз78819 0.0 1017630
05:00+10зюз688313 0.0 1017455
08:00+11зюз57761 0.0 1017463
11:00+13з55681 0.0 1018699
14:00+13зсз66649 0.0 1017603
17:00+14з456215 0.0 1016680
20:00+13з456883 0.0 1017425
21 апреля, ср
ср2123:00+11юз337499 0.0 1018245
02:00+11ю1172100 0.0 101870
05:00+11в237367 0.0 1017178
08:00+12в3475100 0.0 1017279
11:00+14в6774100 0.0 1018629
14:00+15в787583 0.0 1018811
17:00+14в8108387 0.4 1016585
20:00+14вюв8118824 1.6 1016473
22 апреля, чт
чт2223:00+13юв6989100 1.1 1017275
02:00+13вюв3588100 1.6 1016220
05:00+13в4590100 0.6 1016274
08:00+13в7988100 0.7 1016637
11:00+14в7986100 0.1 1017713
14:00+14в7985100 0.3 1017670
17:00+14всв788989 0.3 1016583
20:00+13св678968 0.5 1017453
23 апреля, пт
пт2323:00+13св679081 0.0 1017443
02:00+13св668991 0.1 1017394
05:00+13св6688100 0.1 1017441
08:00+13св778391 0.1 1018487
11:00+14всв667998 0.0 1019460
14:00+15в66743 0.1 1019471
17:00+16в45710 0.0 1019358
20:00+14св11770 0.0 101914